Skip Page Navigation
NASA JPL Caltech
NASA Logo - Jet Propulsion Laboratory + View the NASA Portal
+ Center for Near-Earth Object Studies
JPL Home Earth Solar System Stars & Galaxies Technology
JPL Solar System Dynamics
BODIES ORBITS EPHEMERIDES TOOLS PHYSICAL DATA DISCOVERY FAQ SITE MAP
JPL Small-Body Database Browser
Search: [ help ]  
(2020 UQ6)
Classification: Apollo [NEO]          SPK-ID: 54081199
Ephemeris | Orbit Diagram | Orbital Elements | Mission Design | Physical Parameters | Close-Approach Data ]

[ hide orbit diagram ]

For accurate long-term ephemerides, please instead use our Horizons system.This orbit viewer was implemented using two-body methods, and hence should not be used for determining accurate long-term trajectories (over several years or decades) or planetary encounter circumstances.


Orbital Elements at Epoch 2459200.5 (2020-Dec-17.0) TDB
Reference: JPL 14 (heliocentric ecliptic J2000)
 Element Value Uncertainty (1-sigma)   Units 
e .7590397187278481 0.00046771  
a 2.347705066218264 0.0039165 au
q .5657036731000088 0.00015432 au
i 4.537216146348085 0.0029017 deg
node 37.22398839031813 0.00020205 deg
peri 266.7272428954104 0.00047447 deg
M 26.36776478338908 0.069921 deg
tp 2459104.264668274239
(2020-Sep-11.76466827)
0.014379 TDB
period 1313.904295865796
3.60
3.2878
0.009002
d
yr
n .2739925587675914 0.00068563 deg/d
Q 4.12970645933652 0.0068893 au
  Orbit Determination Parameters
   # obs. used (total)      207  
   data-arc span      18 days  
   first obs. used      2020-10-27  
   last obs. used      2020-11-14  
   planetary ephem.      DE441  
   SB-pert. ephem.      SB441-N16  
   condition code      7  
   norm. resid. RMS      .45274  
   source      ORB  
   producer      Otto Matic  
   solution date      2021-Apr-15 23:13:43  

Additional Information
 Earth MOID = .00450282 au 
 Jupiter MOID = 1.20189 au 
 T_jup = 3.088 
[ show covariance matrix ]

Ephemeris | Orbit Diagram | Orbital Elements | Mission Design | Physical Parameters | Close-Approach Data ]

Physical Parameter Table
Parameter Symbol Value Units Sigma Reference Notes
absolute magnitude H 22.7   .45808 E2020-VF7 autocmod 2.8

[ show close-approach data ]
Ephemeris | Orbit Diagram | Orbital Elements | Mission Design | Physical Parameters | Close-Approach Data ]
ABOUT SSD CREDITS/AWARDS PRIVACY/COPYRIGHT GLOSSARY LINKS
FirstGov 2021-May-13 17:02 UT
(server date/time)  
NASA Home Page
Site Manager:   Ryan S. Park
Webmaster  Alan B. Chamberlin